Location: *
(50.8160°S, 176.0219°W)
Time: 23:18:21
(UTC+00:00)

Cosmos 2360 Rocket - Pass Details

Date: 19 May 2026
Orbit: 831 x 845 km, 71.0° (Epoch: 6 June)

Event Time Altitude Azimuth Distance (km) Brightness Sun altitude
Exits shadow 18:04:27 - 205° (SSW) 3,126 4.8 -11.7°
Reaches altitude 10° 18:06:47 10° 191° (S) 2,479 4.4 -11.3°
Maximum altitude 18:10:39 18° 148° (SSE) 1,953 4.3 -10.7°
Drops below altitude 10° 18:14:30 10° 104° (ESE) 2,469 5.6 -10.1°
Sets 18:17:45 0° 86° (E) 3,399 7.1 -9.7°
